Location: McFarlands Corners
(41.4117°N, 81.3382°W)
Time: 05:42:27
(UTC+00:00)

A-11 Canister half - Pass Details

Date: 16 February 2026
Orbit: 1524 x 1683 km, 47.3° (Epoch: 14 March)

Event Time Altitude Azimuth Distance (km) Brightness Sun altitude
Rises 04:14:06 0° 297° (WNW) 4,678 12.0 -55.5°
Reaches altitude 10° 04:17:08 10° 295° (WNW) 3,698 11.3 -55.8°
Enters shadow 04:19:03 18° 294° (WNW) 3,098 10.8 -56.0°
